Location: Litvinovka
(48.6667°N, 34.3500°E)
Time: 10:51:19
(UTC+00:00)

CENTAUR R/B - Pass Details

Date: 18 September 2020
Orbit: 755 x 1433 km, 63.4° (Epoch: 02 October)

Event Time Altitude Azimuth Distance (km) Brightness Sun altitude
Rises 19:26:57 0° 316° (NW) 4,192 6.9 -32.6°
Reaches altitude 10° 19:29:49 10° 309° (NW) 3,306 6.1 -32.9°
Maximum altitude 19:37:15 40° 244° (WSW) 1,947 4.0 -33.6°
Enters shadow 19:38:32 38° 225° (SW) 2,017 3.9 -33.8°
